Regional Weather Roundup
Issued by NWS

Home | Current Version | Previous Version | Text Only | Print | Product List | Glossary Off
Versions: 1 2 3 4 5 6 7 8 9 10 11 12 13 14 15 16 17 18 19 20 21 22 23 24 25 26 27 28

000
ASUS45 KSLC 241210
RWRUT

UTAH REGIONAL WEATHER ROUNDUP
NATIONAL WEATHER SERVICE SALT LAKE CITY UT
600 AM MDT FRI OCT 24 2014

UTZ001>011-023>025-241300-

NORTHERN UTAH

CITY           SKY/WX    TMP DP  RH WIND       PRES   REMARKS
BRIGHAM CITY   PTCLDY    45  35  67 CALM      30.13S
HILL AFB       CLEAR     57  31  36 E5        30.14R
LOGAN          CLEAR     38  34  85 CALM      30.15S
OGDEN          CLEAR     45  34  65 S7        30.12R
PROVO AIRPORT  CLEAR     46  28  49 CALM      30.16R
SALT LAKE CITY PTCLDY    45  40  82 VRB3      30.12R
VERNAL         PTCLDY    39  33  79 W3        30.24R
WENDOVER       CLEAR     43  30  61 W5        30.13S
HEBER CITY     CLEAR     34  28  80 CALM      30.20R
WEST JORDAN    CLEAR     55  36  47 S7        30.13S

$$

UTZ012>022-026-027-241300-

SOUTHERN/CENTRAL UTAH

CITY           SKY/WX    TMP DP  RH WIND       PRES   REMARKS
BLANDING       CLEAR     46  30  53 CALM      30.38R
BRYCE CANYON   CLEAR     27  23  85 CALM      30.37R
CEDAR CITY     PTCLDY    42  30  62 E5        30.23R
DELTA          CLEAR     55  27  33 S12       30.16R
HANKSVILLE       N/A     37  30  75 CALM      30.24R
MILFORD        CLEAR     48  29  47 S13       30.20R
MOAB/CYNLANDS  CLEAR     45  32  60 SW3       30.21R
PRICE          CLEAR     46  32  58 N6        30.27R
ST GEORGE      SUNNY     54  30  40 CALM      30.16S
KANAB            N/A     37  30  75 NE5       30.29R WCI  34

$$

REGIONAL REPORTS     COLORADO/ARIZONA

CITY           SKY/WX    TMP DP  RH WIND       PRES   REMARKS
CRAIG, CO      CLEAR     29  26  89 CALM      30.28S
GRAND JUNCTION CLEAR     45  36  70 S3        30.25R
RIFLE          PTCLDY    36  33  89 CALM      30.31R
MONTROSE       CLEAR     39  30  70 S10       30.33R WCI  32
CORTEZ         CLEAR     33  28  81 CALM      30.33R
PAGE, AZ       CLEAR     54  32  43 CALM      30.21R
GRAND CANYON   HAZE      28  23  81 CALM      30.34R VSB 1
KINGMAN        CLEAR     57  37  47 S7        30.13S
FLAGSTAFF      PTCLDY    33  29  85 CALM      30.36S

$$

REGIONAL REPORTS    NEVADA/IDAHO/WYOMING

CITY           SKY/WX    TMP DP  RH WIND       PRES   REMARKS
LAS VEGAS, NV  CLEAR     64  36  35 SW7       30.02R
ELY            CLEAR     50  26  39 S16       30.22S
ELKO           PTCLDY    34  18  52 E3        30.13R
POCATELLO, ID  CLOUDY    48  38  68 S6        30.14F
BURLEY         CLOUDY    46  39  76 CALM      30.11S
EVANSTON, WY   CLEAR     43  22  43 SW13      30.22S
ROCK SPRINGS   PTCLDY    44  26  49 S7        30.21R
KEMMERER       CLEAR     39  27  60 CALM      30.23S

$$



USA.gov is the U.S. government's official web portal to all federal, state and local government web resources and services.